Find Starlink 34132

NORAD ID: 64086 Int'l Des: 2025-107 Owner: SPXS Country: US Constellation: starlink operational
LEOCIRCULAR

Live Position

Loading 3D Globe...

About Starlink 34132

Description loading...

Upcoming Passes

Passes for default location (London). Set your location on the main map for personalized predictions.

Altitude History

Loading altitude history...

Two-Line Element Set

1 64086U 25107Y 26104.42522471 .00009081 00000-0 33901-3 0 9996
2 64086 43.0002 359.9144 0001729 274.4171 85.6483 15.27588905 51555
Epoch: Apr 14, 2026 • Age: 19 hours

Current Status

Altitude 484.4 km
Velocity 7.63 km/s
Sub-Earth Point 30.82°N, 112.84°E
Launch Date May 21, 2025
Age 0.9 years
Type internet

Technical Details

Classification Payload
Mass 575.00 kg
Dry Mass 530.00 kg
Total Mass 575.00 kg
Length 0.30 m
Diameter 4.10 m
Span 29.00 m
Shape Box + pan
Manufacturer SPXS
Bus Type Starlink V2MO
Phase Status In Orbit
Owner/State SPXS/US

Most Searched